Coolangatta Observation History
Time Wind Speed Temp Pressure Rel. Hum Rain
26/01:30pm ESE 10-14 kts 25.9°c 1009.9 hPa 62% 0.0mm
26/01:00pm SE 5-9 kts 25.9°c 1010.1 hPa 62% 0.0mm
26/12:30pm SSE 9-11 kts 25.5°c 1010.3 hPa 61% 0.0mm
26/12:00pm S 8-11 kts 25.7°c 1010.6 hPa 65% 0.0mm
26/11:30am S 9-12 kts 24.9°c 1011.1 hPa 66% 0.0mm
26/11:00am S 7-10 kts 24.8°c 1011.6 hPa 69% 0.0mm
26/10:30am SSW 5-7 kts 23.5°c 1012.3 hPa 68% 0.0mm
26/10:00am S 5-8 kts 23.6°c 1012.5 hPa 73% 0.0mm
26/09:30am S 8-13 kts 23.4°c 1012.3 hPa 73% 0.0mm
26/09:17am S 8-10 kts 22.8°c 1012.3 hPa 74% 0.0mm
26/09:00am SSE 8-11 kts 22.0°c 1012.3 hPa 76% 8.6mm
26/08:59am SSE 8-11 kts 22.2°c 1012.3 hPa 78% 8.6mm
26/08:30am S 9-14 kts 21.4°c 1012.0 hPa 81% 8.6mm
26/08:00am S 8-10 kts 21.1°c 1012.0 hPa 84% 8.6mm
26/07:41am SSE 8-11 kts 20.5°c 1012.3 hPa 84% 8.6mm
26/07:30am S 6-8 kts 20.7°c 1012.1 hPa 89% 8.6mm
26/07:00am S 6-9 kts 19.9°c 1011.7 hPa 91% 8.6mm
26/06:30am S 6-8 kts 19.6°c 1011.2 hPa 93% 8.6mm
26/06:17am SSW 5-9 kts 19.3°c 1010.9 hPa 93% 8.6mm
26/06:00am S 6-9 kts 19.3°c 1010.8 hPa 93% 8.6mm
26/05:31am S 6-8 kts 19.1°c 1010.4 hPa 94% 8.6mm
26/05:30am S 5-8 kts 19.2°c 1010.4 hPa 94% 8.6mm
26/05:00am S 6-8 kts 19.2°c 1010.1 hPa 95% 8.6mm
26/04:30am S 2-8 kts 19.3°c 1009.8 hPa 96% 8.6mm
26/04:01am SSE 6-8 kts 19.3°c 1009.6 hPa 97% 8.6mm
26/04:00am SSE 6-8 kts 19.3°c 1009.6 hPa 97% 8.6mm
26/03:30am SSE 4-5 kts 19.4°c 1009.5 hPa 96% 8.6mm
26/03:21am SSE 5-7 kts 19.3°c 1009.4 hPa 96% 8.6mm
26/03:00am SE 6 kts 19.3°c 1009.2 hPa 96% 8.6mm
26/02:30am SSE 3-5 kts 19.5°c 1009.0 hPa 95% 8.6mm
26/02:00am S 2-4 kts 19.8°c 1009.0 hPa 96% 8.6mm
26/01:30am S 3-4 kts 20.2°c 1009.2 hPa 96% 8.6mm
26/01:00am SW 5-7 kts 20.1°c 1009.9 hPa 96% 8.2mm
26/12:35am SW 2-4 kts 20.1°c 1010.2 hPa 95% 5.8mm
26/12:30am SW 3-5 kts 20.1°c 1010.1 hPa 95% 4.2mm
26/12:00am SW 4-5 kts 19.9°c 1010.2 hPa 95% 4.2mm
Time Wind Speed Temp Pressure Rel. Hum Rain
25/11:30pm SW 6-8 kts 19.8°c 1010.6 hPa 95% 4.2mm
25/11:00pm WSW 5-8 kts 19.8°c 1010.8 hPa 96% 4.2mm
25/10:30pm W 6-7 kts 19.6°c 1010.7 hPa 96% 4.2mm
25/10:00pm WSW 5-6 kts 19.5°c 1010.8 hPa 95% 4.2mm
25/09:30pm WSW 4-5 kts 19.7°c 1010.9 hPa 95% 3.8mm
25/09:00pm SW 6-9 kts 19.7°c 1011.1 hPa 94% 3.8mm
25/08:30pm ENE 6-8 kts 20.6°c 1011.0 hPa 88% 3.8mm
25/08:00pm ENE 8-10 kts 20.3°c 1010.9 hPa 90% 3.8mm
25/07:30pm CALM 0-3 kts 19.9°c 1011.1 hPa 90% 3.6mm
25/07:13pm WSW 4-7 kts 20.0°c 1011.3 hPa 92% 3.4mm
25/07:00pm W 8-12 kts 20.1°c 1011.4 hPa 92% 3.4mm
25/06:52pm NNE 6-9 kts 20.3°c 1011.2 hPa 90% 3.4mm
25/06:40pm NE 7-10 kts 20.5°c 1010.7 hPa 90% 2.2mm
25/06:30pm NE 8-10 kts 20.6°c 1010.5 hPa 89% 0.4mm
25/06:00pm NNE 9-11 kts 20.3°c 1010.3 hPa 91% 0.2mm
25/05:30pm N 7-9 kts 21.0°c 1010.6 hPa 83% 0.2mm
25/05:00pm NNW 12-18 kts 20.9°c 1010.4 hPa 84% 0.0mm
25/04:30pm N 15-20 kts 21.0°c 1008.9 hPa 81% 0.0mm
25/04:28pm N 16-21 kts 20.9°c 1008.9 hPa 80% 0.0mm
25/04:18pm N 16-22 kts 21.0°c 1008.8 hPa 80% 0.0mm
25/04:00pm N 16-21 kts 21.2°c 1008.1 hPa 80% 0.0mm
25/03:30pm N 12-17 kts 23.0°c 1007.6 hPa 88% 0.0mm
25/03:00pm N 14-18 kts 23.1°c 1007.8 hPa 88% 0.0mm
25/02:30pm N 13-17 kts 23.1°c 1008.1 hPa 89% 0.0mm
25/02:00pm N 15-19 kts 23.8°c 1008.6 hPa 85% 0.0mm
25/01:30pm N 15-18 kts 24.0°c 1008.6 hPa 83% 0.0mm
25/01:00pm NNE 14-20 kts 25.2°c 1008.9 hPa 77% 0.0mm
25/12:30pm NNE 14-18 kts 25.8°c 1009.3 hPa 75% 0.0mm
25/12:00pm NNE 12-16 kts 25.5°c 1009.9 hPa 74% 0.0mm
25/11:30am N 13-16 kts 24.6°c 1010.2 hPa 75% 0.0mm
25/11:00am N 13-17 kts 25.6°c 1010.2 hPa 73% 0.0mm
25/10:30am N 11-14 kts 24.3°c 1010.6 hPa 78% 0.0mm
25/10:00am N 8-14 kts 24.5°c 1010.8 hPa 77% 0.0mm
25/09:30am NNE 8-11 kts 23.8°c 1011.0 hPa 82% 0.0mm
25/09:00am NNE 9-11 kts 23.4°c 1011.1 hPa 82% 19.6mm
25/08:30am N 8-10 kts 23.1°c 1011.3 hPa 83% 19.6mm
25/08:00am N 8-11 kts 23.4°c 1011.1 hPa 81% 19.6mm
25/07:30am N 9-11 kts 22.6°c 1011.2 hPa 82% 19.6mm
25/07:00am NNW 9-11 kts 22.4°c 1010.8 hPa 81% 19.6mm
25/06:30am NNW 8-11 kts 22.3°c 1010.5 hPa 83% 19.6mm
25/06:00am NNW 11-14 kts 21.5°c 1010.2 hPa 87% 19.6mm
25/05:30am NNW 11-15 kts 20.9°c 1010.0 hPa 88% 19.6mm
25/05:00am NNW 11-14 kts 20.9°c 1009.7 hPa 88% 19.6mm
25/04:30am NNW 11-15 kts 21.0°c 1009.6 hPa 88% 19.6mm
25/04:00am NNW 10-14 kts 20.7°c 1009.3 hPa 90% 19.6mm
25/03:30am NNW 12-15 kts 21.0°c 1008.9 hPa 89% 19.6mm
25/03:00am NNW 11-15 kts 20.9°c 1008.8 hPa 89% 19.6mm
25/02:30am NNW 11-17 kts 20.7°c 1008.9 hPa 89% 19.6mm
25/02:00am NW 11-15 kts 20.5°c 1008.6 hPa 91% 19.6mm
25/01:30am NNW 10-13 kts 20.3°c 1008.7 hPa 91% 19.6mm
25/01:00am NW 10-14 kts 20.1°c 1009.0 hPa 92% 19.6mm
25/12:30am NW 6-8 kts 19.8°c 1009.4 hPa 93% 19.6mm
25/12:00am WNW 6-9 kts 19.6°c 1009.9 hPa 93% 19.6mm
Time Wind Speed Temp Pressure Rel. Hum Rain
24/11:30pm NW 9-12 kts 19.9°c 1010.1 hPa 90% 19.6mm
24/11:00pm NNW 10-13 kts 20.0°c 1010.1 hPa 90% 19.6mm
24/10:30pm NNW 8-11 kts 19.8°c 1010.5 hPa 94% 19.6mm
24/10:00pm N 9-11 kts 20.1°c 1010.3 hPa 94% 19.6mm
24/09:30pm N 5-6 kts 20.2°c 1010.5 hPa 94% 19.6mm
24/09:00pm W 7-9 kts 20.4°c 1010.5 hPa 93% 19.6mm
24/08:30pm N 11-14 kts 20.8°c 1010.9 hPa 92% 19.6mm
24/08:00pm N 11-15 kts 20.5°c 1011.4 hPa 92% 19.6mm
24/07:43pm N 15-20 kts 20.3°c 1011.6 hPa 90% 19.6mm
24/07:30pm N 15-20 kts 20.3°c 1011.3 hPa 92% 19.4mm
24/07:00pm N 13-17 kts 20.3°c 1010.9 hPa 94% 19.0mm
24/06:54pm N 13-16 kts 20.3°c 1010.7 hPa 94% 19.0mm
24/06:30pm NNW 11-14 kts 20.3°c 1010.6 hPa 95% 18.8mm
24/06:10pm N 11-15 kts 20.4°c 1010.4 hPa 95% 18.6mm
24/06:00pm N 13-17 kts 20.3°c 1010.4 hPa 95% 18.6mm
24/05:30pm N 12-15 kts 20.4°c 1010.5 hPa 96% 18.0mm
24/05:29pm N 12-15 kts 20.4°c 1010.5 hPa 96% 18.0mm
24/05:00pm N 11-14 kts 20.1°c 1010.6 hPa 95% 15.2mm
24/04:54pm N 11-13 kts 20.2°c 1010.4 hPa 95% 14.4mm
24/04:51pm N 11-13 kts 20.2°c 1010.4 hPa 95% 13.8mm
24/04:31pm N 9-12 kts 20.3°c 1010.4 hPa 94% 11.8mm
24/04:30pm N 8-12 kts 20.3°c 1010.4 hPa 94% 11.8mm
24/04:00pm NNW 2-5 kts 20.2°c 1010.0 hPa 93% 9.4mm
24/03:55pm NNW 4-6 kts 20.2°c 1010.0 hPa 93% 9.0mm
24/03:49pm NNW 5-9 kts 20.2°c 1010.2 hPa 92% 8.6mm
24/03:43pm NNW 7-11 kts 20.3°c 1010.2 hPa 92% 8.0mm
24/03:30pm NNW 15-21 kts 20.5°c 1010.2 hPa 90% 7.2mm
24/03:28pm NNW 16-21 kts 20.5°c 1010.2 hPa 89% 6.4mm
24/03:25pm N 16-21 kts 21.6°c 1010.3 hPa 91% 4.4mm
24/03:00pm N 14-19 kts 22.3°c 1009.7 hPa 89% 1.4mm
24/02:30pm N 15-19 kts 22.6°c 1010.0 hPa 87% 1.2mm
24/02:00pm N 15-19 kts 22.8°c 1010.4 hPa 87% 1.2mm
24/01:30pm N 14-19 kts 22.8°c 1010.6 hPa 85% 1.0mm
24/01:00pm NNW 6-11 kts 23.1°c 1011.0 hPa 82% 1.0mm
24/12:30pm NNW 9-12 kts 22.8°c 1011.3 hPa 88% 1.0mm
24/12:00pm N 11-16 kts 22.5°c 1011.7 hPa 88% 0.4mm
24/11:30am N 13-16 kts 22.8°c 1011.8 hPa 88% 0.2mm
24/11:00am N 14-19 kts 24.3°c 1012.0 hPa 75% 0.0mm
24/10:30am N 13-18 kts 24.4°c 1012.5 hPa 73% 0.0mm
24/10:00am N 14-18 kts 24.5°c 1013.0 hPa 75% 0.0mm
24/09:30am N 13-17 kts 24.0°c 1013.1 hPa 77% 0.0mm
24/09:00am NNW 12-17 kts 23.7°c 1013.3 hPa 76% 1.6mm
24/08:30am N 13-16 kts 22.1°c 1013.7 hPa 89% 1.6mm
24/08:00am N 15-17 kts 22.4°c 1013.5 hPa 85% 1.6mm
24/07:30am N 15-19 kts 21.8°c 1013.7 hPa 86% 1.6mm
24/07:00am N 13-16 kts 21.2°c 1013.7 hPa 91% 1.6mm
24/06:49am N 10-13 kts 20.9°c 1013.7 hPa 93% 1.6mm
24/06:38am N 13-17 kts 20.5°c 1013.8 hPa 93% 1.6mm
24/06:30am N 15-20 kts 20.5°c 1013.8 hPa 93% 1.0mm
24/06:23am N 15-19 kts 20.6°c 1013.9 hPa 93% 0.4mm
24/06:08am NW 12-19 kts 21.1°c 1013.7 hPa 88% 0.0mm
24/06:00am NW 11-18 kts 21.7°c 1013.5 hPa 84% 0.0mm
24/05:30am NNW 13-17 kts 22.3°c 1013.0 hPa 78% 0.0mm
24/05:00am NNW 13-17 kts 22.2°c 1012.6 hPa 79% 0.0mm
24/04:30am N 14-18 kts 22.2°c 1012.4 hPa 81% 0.0mm
24/04:00am NNW 10-14 kts 21.9°c 1012.3 hPa 83% 0.0mm
24/03:30am NNW 11-15 kts 21.8°c 1012.1 hPa 82% 0.0mm
24/03:00am NNW 11-14 kts 21.7°c 1012.4 hPa 81% 0.0mm
24/02:30am N 13-16 kts 21.8°c 1012.1 hPa 82% 0.0mm
24/02:00am NNW 7-9 kts 21.4°c 1012.5 hPa 83% 0.0mm
24/01:30am NNW 6-9 kts 21.4°c 1012.5 hPa 82% 0.0mm
24/01:00am NW 6-8 kts 21.6°c 1012.8 hPa 81% 0.0mm
24/12:30am NNW 11-15 kts 22.1°c 1013.4 hPa 81% 0.0mm
24/12:00am NNW 10-13 kts 21.8°c 1013.7 hPa 83% 0.0mm